CEB956 RPMD-RPLL

Flight info

Callsign CEB956
Flight time N/A
Altitude 38000
Route ANKIN3R ANKIN B473 LAIYA LAIYA5R
Aircraft A339/H-SADE1E2E3GHIJ3J5M1P2RWXY/LB2D1

Departure

Time 2026-05-07 09:24
Airport Francisco Bangoy International Airport (RPMD)

Arrival

Time N/A
Airport Ninoy Aquino International Airport (RPLL)
Time Latitude Longitude Altitude Speed Heading
2026-05-07 09:05 7.12901 125.64514 125 ft 0 kts 319°
2026-05-07 09:10 7.12897 125.64518 126 ft 2 kts 319°
2026-05-07 09:10 7.12886 125.64527 126 ft 2 kts 319°
2026-05-07 09:11 7.12875 125.64537 126 ft 2 kts 319°
2026-05-07 09:11 7.12863 125.64547 126 ft 2 kts 319°
2026-05-07 09:11 7.12856 125.64553 126 ft 2 kts 315°
2026-05-07 09:11 7.12849 125.64567 126 ft 2 kts 272°
2026-05-07 09:12 7.12851 125.64582 126 ft 2 kts 238°
2026-05-07 09:12 7.12855 125.64587 126 ft 1 kts 227°
2026-05-07 09:12 7.12857 125.64590 126 ft 0 kts 228°
2026-05-07 09:17 7.12857 125.64589 126 ft 0 kts 228°
2026-05-07 09:17 7.12846 125.64576 125 ft 3 kts 229°
2026-05-07 09:17 7.12821 125.64547 125 ft 6 kts 230°
2026-05-07 09:17 7.12786 125.64506 126 ft 8 kts 229°
2026-05-07 09:18 7.12740 125.64460 126 ft 9 kts 211°
2026-05-07 09:18 7.12675 125.64468 126 ft 10 kts 144°
2026-05-07 09:18 7.12613 125.64519 126 ft 10 kts 141°
2026-05-07 09:18 7.12565 125.64552 126 ft 8 kts 168°
2026-05-07 09:19 7.12507 125.64523 126 ft 11 kts 224°
2026-05-07 09:19 7.12452 125.64462 126 ft 12 kts 228°
2026-05-07 09:19 7.12390 125.64394 126 ft 13 kts 228°
2026-05-07 09:19 7.12327 125.64322 126 ft 14 kts 231°
2026-05-07 09:20 7.12263 125.64243 126 ft 14 kts 230°
2026-05-07 09:20 7.12194 125.64165 126 ft 15 kts 230°
2026-05-07 09:20 7.12125 125.64082 126 ft 15 kts 229°
2026-05-07 09:20 7.12054 125.63999 126 ft 15 kts 228°
2026-05-07 09:21 7.11981 125.63915 126 ft 15 kts 229°
2026-05-07 09:21 7.11908 125.63830 126 ft 16 kts 229°
2026-05-07 09:21 7.11832 125.63743 126 ft 16 kts 230°
2026-05-07 09:21 7.11772 125.63670 126 ft 8 kts 232°
2026-05-07 09:22 7.11756 125.63609 126 ft 9 kts 268°
2026-05-07 09:22 7.11738 125.63549 126 ft 7 kts 226°
2026-05-07 09:22 7.11697 125.63551 126 ft 4 kts 136°
2026-05-07 09:22 7.11698 125.63578 126 ft 5 kts 64°
2026-05-07 09:23 7.11712 125.63600 126 ft 0 kts 53°
2026-05-07 09:23 7.11776 125.63676 126 ft 43 kts 49°
2026-05-07 09:23 7.12119 125.64075 126 ft 105 kts 46°
2026-05-07 09:24 7.12729 125.64786 130 ft 156 kts 50°
2026-05-07 09:24 7.13448 125.65626 601 ft 159 kts 50°
2026-05-07 09:24 7.14186 125.66457 1117 ft 161 kts 47°
2026-05-07 09:24 7.15162 125.66967 1640 ft 164 kts
2026-05-07 09:25 7.16292 125.66836 2071 ft 170 kts 350°
2026-05-07 09:25 7.17511 125.66566 2363 ft 186 kts 349°
2026-05-07 09:25 7.18846 125.66292 2659 ft 203 kts 351°
2026-05-07 09:25 7.20283 125.66036 2963 ft 219 kts 353°
2026-05-07 09:26 7.21860 125.65788 3271 ft 237 kts 353°
2026-05-07 09:26 7.23578 125.65534 3610 ft 255 kts 353°
2026-05-07 09:26 7.25395 125.65276 4005 ft 272 kts 353°
2026-05-07 09:26 7.27296 125.65009 4670 ft 277 kts 353°
2026-05-07 09:27 7.29192 125.64745 5412 ft 278 kts 353°
2026-05-07 09:27 7.31117 125.64477 6138 ft 280 kts 353°
2026-05-07 09:27 7.35004 125.63937 7515 ft 285 kts 354°
2026-05-07 09:28 7.36979 125.63662 8204 ft 287 kts 354°
2026-05-07 09:28 7.38961 125.63388 8887 ft 289 kts 354°
2026-05-07 09:28 7.40968 125.63112 9546 ft 292 kts 355°
2026-05-07 09:28 7.42991 125.62834 10193 ft 295 kts 354°
2026-05-07 09:29 7.45053 125.62487 10611 ft 308 kts 345°
2026-05-07 09:29 7.47038 125.61474 10908 ft 329 kts 323°
2026-05-07 09:29 7.48625 125.59762 11407 ft 340 kts 310°
2026-05-07 09:29 7.50067 125.57873 12018 ft 344 kts 309°
2026-05-07 09:30 7.51532 125.55943 12617 ft 347 kts 309°
2026-05-07 09:30 7.52998 125.54025 13213 ft 350 kts 309°
2026-05-07 09:30 7.54495 125.52080 13811 ft 354 kts 309°
2026-05-07 09:30 7.56022 125.50101 14402 ft 357 kts 310°
2026-05-07 09:31 7.57547 125.48132 14983 ft 361 kts 310°
2026-05-07 09:31 7.59107 125.46121 15575 ft 364 kts 310°
2026-05-07 09:31 7.60663 125.44114 16136 ft 367 kts 310°
2026-05-07 09:31 7.62241 125.42080 16692 ft 371 kts 310°
2026-05-07 09:32 7.63843 125.40017 17259 ft 374 kts 310°
2026-05-07 09:32 7.65438 125.37965 17813 ft 377 kts 310°
2026-05-07 09:32 7.67082 125.35853 18366 ft 380 kts 310°
2026-05-07 09:32 7.68726 125.33736 18900 ft 383 kts 310°
2026-05-07 09:33 7.70368 125.31622 19419 ft 386 kts 310°
2026-05-07 09:33 7.72022 125.29489 19929 ft 389 kts 310°
2026-05-07 09:33 7.73697 125.27330 20431 ft 392 kts 310°
2026-05-07 09:33 7.75380 125.25158 20916 ft 395 kts 310°
2026-05-07 09:34 7.77073 125.22973 21388 ft 397 kts 310°
2026-05-07 09:34 7.78773 125.20777 21844 ft 400 kts 310°
2026-05-07 09:34 7.80489 125.18562 22283 ft 403 kts 310°
2026-05-07 09:34 7.82231 125.16311 22725 ft 407 kts 310°
2026-05-07 09:35 7.83969 125.14066 23204 ft 408 kts 310°
2026-05-07 09:35 7.85713 125.11813 23681 ft 410 kts 310°
2026-05-07 09:35 7.87486 125.09520 24152 ft 412 kts 310°
2026-05-07 09:35 7.89248 125.07241 24603 ft 413 kts 310°
2026-05-07 09:36 7.90999 125.04977 25046 ft 415 kts 310°
2026-05-07 09:36 7.92795 125.02653 25493 ft 417 kts 310°
2026-05-07 09:36 7.94582 125.00350 25926 ft 418 kts 311°
2026-05-07 09:36 7.96485 124.98141 26352 ft 418 kts 315°
2026-05-07 09:37 7.98551 124.96092 26771 ft 418 kts 319°
2026-05-07 09:37 8.00760 124.94202 27164 ft 419 kts 322°
2026-05-07 09:37 8.03039 124.92344 27549 ft 421 kts 323°
2026-05-07 09:37 8.05339 124.90482 27924 ft 423 kts 323°
2026-05-07 09:38 8.07626 124.88628 28285 ft 425 kts 322°
2026-05-07 09:38 8.09938 124.86751 28655 ft 427 kts 322°
2026-05-07 09:38 8.12276 124.84849 29048 ft 428 kts 322°
2026-05-07 09:38 8.14617 124.82941 29420 ft 430 kts 322°
2026-05-07 09:39 8.16943 124.81046 29765 ft 433 kts 322°
2026-05-07 09:39 8.19306 124.79118 30101 ft 435 kts 322°
2026-05-07 09:39 8.21651 124.77205 30434 ft 438 kts 322°
2026-05-07 09:39 8.24021 124.75270 30785 ft 440 kts 322°
2026-05-07 09:40 8.26404 124.73325 31121 ft 442 kts 322°
2026-05-07 09:40 8.28803 124.71366 31444 ft 444 kts 322°
2026-05-07 09:40 8.31225 124.69386 31740 ft 447 kts 322°
2026-05-07 09:40 8.33642 124.67410 32040 ft 449 kts 322°
2026-05-07 09:41 8.36095 124.65405 32351 ft 452 kts 322°
2026-05-07 09:41 8.38536 124.63421 32660 ft 454 kts 323°
2026-05-07 09:41 8.41087 124.61511 32995 ft 455 kts 326°
2026-05-07 09:41 8.43740 124.59740 33324 ft 457 kts 329°
2026-05-07 09:42 8.46487 124.58099 33637 ft 460 kts 331°
2026-05-07 09:42 8.49268 124.56493 33935 ft 462 kts 331°
2026-05-07 09:42 8.52092 124.54870 34302 ft 464 kts 331°
2026-05-07 09:42 8.54886 124.53263 34764 ft 463 kts 331°
2026-05-07 09:43 8.57701 124.51644 35231 ft 462 kts 330°
2026-05-07 09:43 8.60485 124.50040 35652 ft 461 kts 330°
2026-05-07 09:43 8.63274 124.48431 36033 ft 461 kts 330°
2026-05-07 09:43 8.66070 124.46816 36352 ft 463 kts 330°
2026-05-07 09:44 8.68852 124.45211 36613 ft 464 kts 330°
2026-05-07 09:44 8.71678 124.43578 36867 ft 466 kts 330°
2026-05-07 09:44 8.74502 124.41946 37116 ft 468 kts 330°
2026-05-07 09:44 8.77369 124.40291 37374 ft 470 kts 330°
2026-05-07 09:45 8.80203 124.38652 37636 ft 471 kts 330°
2026-05-07 09:45 8.83032 124.37016 37781 ft 474 kts 330°
2026-05-07 09:45 8.85904 124.35355 37784 ft 475 kts 330°
2026-05-07 09:46 8.91650 124.32030 37782 ft 474 kts 330°
2026-05-07 09:46 8.97384 124.28708 37786 ft 475 kts 330°
2026-05-07 09:47 9.03150 124.25370 37781 ft 474 kts 330°
2026-05-07 09:47 9.08884 124.22053 37782 ft 474 kts 330°
2026-05-07 09:48 9.14636 124.18720 37782 ft 475 kts 330°
2026-05-07 09:48 9.20370 124.15391 37783 ft 475 kts 330°
2026-05-07 09:49 9.26115 124.12052 37784 ft 476 kts 330°
2026-05-07 09:49 9.31853 124.08714 37789 ft 476 kts 330°
2026-05-07 09:50 9.37624 124.05359 37790 ft 477 kts 330°
2026-05-07 09:50 9.43413 124.02017 37788 ft 477 kts 330°
2026-05-07 09:51 9.49168 123.98698 37790 ft 477 kts 330°
2026-05-07 09:51 9.54939 123.95357 37796 ft 478 kts 330°
2026-05-07 09:52 9.60706 123.92008 37795 ft 478 kts 330°
2026-05-07 09:52 9.66511 123.88635 37799 ft 479 kts 330°
2026-05-07 09:53 9.72291 123.85272 37800 ft 480 kts 330°
2026-05-07 09:53 9.78083 123.81901 37806 ft 480 kts 330°
2026-05-07 09:54 9.83874 123.78526 37802 ft 480 kts 330°
2026-05-07 09:54 9.89688 123.75140 37807 ft 481 kts 330°
2026-05-07 09:55 9.95505 123.71757 37810 ft 481 kts 330°
2026-05-07 09:55 10.01305 123.68378 37813 ft 481 kts 330°
2026-05-07 09:56 10.07116 123.64987 37814 ft 481 kts 330°
2026-05-07 09:56 10.12959 123.61573 37813 ft 481 kts 330°
2026-05-07 09:57 10.18761 123.58182 37816 ft 481 kts 330°
2026-05-07 09:57 10.24569 123.54782 37810 ft 481 kts 330°
2026-05-07 09:58 10.30382 123.51385 37809 ft 481 kts 330°
2026-05-07 09:58 10.36181 123.48009 37808 ft 481 kts 330°
2026-05-07 09:59 10.41995 123.44620 37819 ft 480 kts 329°
2026-05-07 09:59 10.47803 123.41228 37833 ft 480 kts 329°
2026-05-07 10:00 10.53578 123.37849 37846 ft 480 kts 329°
2026-05-07 10:00 10.59394 123.34444 37857 ft 480 kts 329°
2026-05-07 10:01 10.65211 123.31044 37863 ft 480 kts 329°
2026-05-07 10:01 10.70997 123.27663 37882 ft 479 kts 329°
2026-05-07 10:02 10.76785 123.24279 37891 ft 479 kts 329°
2026-05-07 10:02 10.82542 123.20908 37869 ft 479 kts 329°
2026-05-07 10:03 10.88342 123.17505 37845 ft 479 kts 329°
2026-05-07 10:03 10.94130 123.14104 37822 ft 479 kts 329°
2026-05-07 10:04 10.99899 123.10719 37805 ft 479 kts 329°
2026-05-07 10:04 11.05654 123.07348 37803 ft 478 kts 329°
2026-05-07 10:05 11.11428 123.03958 37804 ft 478 kts 329°